Time,TemperatureF,DewpointF,PressureIn,WindDirection,WindDirectionDegrees,WindSpeedMPH,WindSpeedGustMPH,Humidity,HourlyPrecipIn,Conditions,Clouds,dailyrainin,SoftwareType,DateUTC
2013-11-28 00:07:00,23.0,16.0,29.92,NW,315,6.8,-999.0,74,-99.99,,,0.00,Acu-Link.com,2013-11-28 05:07:00,
2013-11-28 00:22:00,22.8,15.8,29.93,West,270,4.2,-999.0,74,-99.99,,,0.00,Acu-Link.com,2013-11-28 05:22:00,
2013-11-28 00:37:00,22.5,15.8,29.94,West,270,3.7,-999.0,75,-99.99,,,0.00,Acu-Link.com,2013-11-28 05:37:00,
2013-11-28 00:52:00,22.1,15.1,29.94,WSW,247,10.4,-999.0,74,-99.99,,,0.00,Acu-Link.com,2013-11-28 05:52:00,
2013-11-28 01:08:00,22.1,15.1,29.94,ENE,67,1.7,-999.0,74,-99.99,,,0.00,Acu-Link.com,2013-11-28 06:08:00,
2013-11-28 01:23:00,21.9,15.2,29.95,NNW,337,3.7,-999.0,75,-99.99,,,0.00,Acu-Link.com,2013-11-28 06:23:00,
2013-11-28 01:38:00,21.7,15.0,29.97,NW,315,2.2,-999.0,75,-99.99,,,0.00,Acu-Link.com,2013-11-28 06:38:00,
2013-11-28 01:53:00,21.2,15.1,29.97,East,90,1.1,-999.0,77,-99.99,,,0.00,Acu-Link.com,2013-11-28 06:53:00,
2013-11-28 02:08:00,20.8,15.0,29.99,NNW,337,6.3,-999.0,78,-99.99,,,0.00,Acu-Link.com,2013-11-28 07:08:00,
2013-11-28 02:23:00,21.4,15.6,30.00,NW,315,3.2,-999.0,78,-99.99,,,0.00,Acu-Link.com,2013-11-28 07:23:00,
2013-11-28 02:39:00,21.4,15.9,30.01,NNW,337,5.8,-999.0,79,-99.99,,,0.00,Acu-Link.com,2013-11-28 07:39:00,
2013-11-28 02:54:00,21.0,15.8,30.01,NNW,337,4.2,-999.0,80,-99.99,,,0.00,Acu-Link.com,2013-11-28 07:54:00,
2013-11-28 03:09:00,21.0,15.2,30.02,NNW,337,2.7,-999.0,78,-99.99,,,0.00,Acu-Link.com,2013-11-28 08:09:00,
2013-11-28 03:24:00,21.0,15.5,30.02,ESE,112,4.7,-999.0,79,-99.99,,,0.00,Acu-Link.com,2013-11-28 08:24:00,
2013-11-28 03:39:00,20.8,15.0,30.02,NNW,337,4.2,-999.0,78,-99.99,,,0.00,Acu-Link.com,2013-11-28 08:39:00,
2013-11-28 03:54:00,20.5,15.3,30.03,WNW,292,1.1,-999.0,80,-99.99,,,0.00,Acu-Link.com,2013-11-28 08:54:00,
2013-11-28 04:09:00,20.1,14.9,30.03,NNE,22,3.2,-999.0,80,-99.99,,,0.00,Acu-Link.com,2013-11-28 09:09:00,
2013-11-28 04:24:00,19.9,15.0,30.04,NW,315,2.7,-999.0,81,-99.99,,,0.00,Acu-Link.com,2013-11-28 09:24:00,
2013-11-28 04:39:00,20.1,14.9,30.03,NNW,337,2.7,-999.0,80,-99.99,,,0.00,Acu-Link.com,2013-11-28 09:39:00,
2013-11-28 04:55:00,19.8,15.2,30.04,SSW,202,2.2,-999.0,82,-99.99,,,0.00,Acu-Link.com,2013-11-28 09:55:00,
2013-11-28 05:10:00,18.9,14.6,30.05,West,270,0.0,-999.0,83,-99.99,,,0.00,Acu-Link.com,2013-11-28 10:10:00,
2013-11-28 05:25:00,18.9,15.2,30.05,West,270,0.0,-999.0,85,-99.99,,,0.00,Acu-Link.com,2013-11-28 10:25:00,
2013-11-28 05:40:00,18.1,14.6,30.05,West,270,0.0,-999.0,86,-99.99,,,0.00,Acu-Link.com,2013-11-28 10:40:00,
2013-11-28 05:55:00,18.7,15.0,30.05,WNW,292,3.2,-999.0,85,-99.99,,,0.00,Acu-Link.com,2013-11-28 10:55:00,
2013-11-28 06:10:00,19.2,15.2,30.06,SSW,202,2.2,-999.0,84,-99.99,,,0.00,Acu-Link.com,2013-11-28 11:10:00,
2013-11-28 06:25:00,19.4,15.1,30.05,NW,315,1.1,-999.0,83,-99.99,,,0.00,Acu-Link.com,2013-11-28 11:25:00,
2013-11-28 06:40:00,19.0,15.5,30.05,East,90,3.2,-999.0,86,-99.99,,,0.00,Acu-Link.com,2013-11-28 11:40:00,
2013-11-28 06:56:00,19.0,15.2,30.05,NNE,22,2.2,-999.0,85,-99.99,,,0.00,Acu-Link.com,2013-11-28 11:56:00,
2013-11-28 07:11:00,18.5,15.0,30.06,SE,135,2.2,-999.0,86,-99.99,,,0.00,Acu-Link.com,2013-11-28 12:11:00,
2013-11-28 07:26:00,18.3,14.8,30.07,NNW,337,0.0,-999.0,86,-99.99,,,0.00,Acu-Link.com,2013-11-28 12:26:00,
2013-11-28 07:41:00,18.3,15.4,30.08,SE,135,0.0,-999.0,88,-99.99,,,0.00,Acu-Link.com,2013-11-28 12:41:00,
2013-11-28 07:56:00,20.8,16.5,30.09,NW,315,2.7,-999.0,83,-99.99,,,0.00,Acu-Link.com,2013-11-28 12:56:00,
2013-11-28 08:11:00,22.3,17.1,30.08,South,180,2.7,-999.0,80,-99.99,,,0.00,Acu-Link.com,2013-11-28 13:11:00,
2013-11-28 08:26:00,24.4,17.3,30.08,NNW,337,1.1,-999.0,74,-99.99,,,0.00,Acu-Link.com,2013-11-28 13:26:00,
2013-11-28 08:41:00,25.5,18.1,30.09,NNW,337,2.2,-999.0,73,-99.99,,,0.00,Acu-Link.com,2013-11-28 13:41:00,
2013-11-28 08:57:00,26.2,18.1,30.10,NE,45,0.0,-999.0,71,-99.99,,,0.00,Acu-Link.com,2013-11-28 13:57:00,
2013-11-28 09:12:00,26.8,18.0,30.11,NE,45,0.0,-999.0,69,-99.99,,,0.00,Acu-Link.com,2013-11-28 14:12:00,
2013-11-28 09:27:00,26.2,17.1,30.11,NNW,337,4.7,-999.0,68,-99.99,,,0.00,Acu-Link.com,2013-11-28 14:27:00,
2013-11-28 09:42:00,26.8,17.3,30.11,WNW,292,3.2,-999.0,67,-99.99,,,0.00,Acu-Link.com,2013-11-28 14:42:00,
2013-11-28 09:57:00,30.0,18.6,30.12,WSW,247,1.7,-999.0,62,-99.99,,,0.00,Acu-Link.com,2013-11-28 14:57:00,
2013-11-28 10:12:00,31.8,17.5,30.11,NNE,22,2.7,-999.0,55,-99.99,,,0.00,Acu-Link.com,2013-11-28 15:12:00,
2013-11-28 10:27:00,32.5,18.2,30.12,WNW,292,0.0,-999.0,55,-99.99,,,0.00,Acu-Link.com,2013-11-28 15:27:00,
2013-11-28 10:42:00,32.7,17.9,30.12,NW,315,2.7,-999.0,54,-99.99,,,0.00,Acu-Link.com,2013-11-28 15:42:00,
2013-11-28 10:57:00,35.1,18.4,30.11,NNW,337,0.0,-999.0,50,-99.99,,,0.00,Acu-Link.com,2013-11-28 15:57:00,
2013-11-28 11:13:00,36.1,17.8,30.11,WNW,292,2.7,-999.0,47,-99.99,,,0.00,Acu-Link.com,2013-11-28 16:13:00,
2013-11-28 11:28:00,37.6,17.2,30.11,WNW,292,2.2,-999.0,43,-99.99,,,0.00,Acu-Link.com,2013-11-28 16:28:00,
2013-11-28 11:43:00,40.5,19.8,30.11,NNW,337,5.3,-999.0,43,-99.99,,,0.00,Acu-Link.com,2013-11-28 16:43:00,
2013-11-28 11:58:00,40.8,17.8,30.10,NW,315,3.2,-999.0,39,-99.99,,,0.01,Acu-Link.com,2013-11-28 16:58:00,
2013-11-28 12:13:00,43.3,17.5,30.10,WSW,247,2.7,-999.0,35,-99.99,,,0.01,Acu-Link.com,2013-11-28 17:13:00,
2013-11-28 12:28:00,45.1,18.4,30.09,SE,135,1.1,-999.0,34,-99.99,,,0.01,Acu-Link.com,2013-11-28 17:28:00,
2013-11-28 12:43:00,45.7,16.8,30.09,North,0,0.0,-999.0,31,-99.99,,,0.01,Acu-Link.com,2013-11-28 17:43:00,
2013-11-28 12:58:00,45.3,18.6,30.07,SW,225,2.2,-999.0,34,-99.99,,,0.01,Acu-Link.com,2013-11-28 17:58:00,
2013-11-28 13:13:00,48.7,14.5,30.06,North,0,2.7,-999.0,25,-99.99,,,0.01,Acu-Link.com,2013-11-28 18:13:00,
2013-11-28 13:29:00,48.7,13.5,30.06,WSW,247,1.1,-999.0,24,-99.99,,,0.02,Acu-Link.com,2013-11-28 18:29:00,
2013-11-28 13:44:00,49.1,16.6,30.06,SSW,202,0.0,-999.0,27,-99.99,,,0.02,Acu-Link.com,2013-11-28 18:44:00,
2013-11-28 13:59:00,52.2,10.0,30.05,West,270,4.2,-999.0,18,-99.99,,,0.02,Acu-Link.com,2013-11-28 18:59:00,
2013-11-28 14:14:00,53.1,8.1,30.06,West,270,4.2,-999.0,16,-99.99,,,0.03,Acu-Link.com,2013-11-28 19:14:00,
2013-11-28 14:29:00,52.9,8.0,30.06,SSE,157,0.0,-999.0,16,-99.99,,,0.03,Acu-Link.com,2013-11-28 19:29:00,
2013-11-28 14:44:00,52.9,6.5,30.06,SSW,202,2.2,-999.0,15,-99.99,,,0.03,Acu-Link.com,2013-11-28 19:44:00,
2013-11-28 14:59:00,52.5,9.0,30.06,WNW,292,0.0,-999.0,17,-99.99,,,0.03,Acu-Link.com,2013-11-28 19:59:00,
2013-11-28 15:14:00,53.2,12.0,30.06,NNE,22,0.0,-999.0,19,-99.99,,,0.03,Acu-Link.com,2013-11-28 20:14:00,
2013-11-28 15:29:00,50.7,13.3,30.07,WNW,292,0.0,-999.0,22,-99.99,,,0.03,Acu-Link.com,2013-11-28 20:29:00,
2013-11-28 15:45:00,51.1,12.5,30.07,East,90,0.0,-999.0,21,-99.99,,,0.03,Acu-Link.com,2013-11-28 20:45:00,
2013-11-28 16:00:00,51.1,10.3,30.07,ESE,112,0.0,-999.0,19,-99.99,,,0.03,Acu-Link.com,2013-11-28 21:00:00,
2013-11-28 16:15:00,50.7,8.8,30.08,NW,315,0.0,-999.0,18,-99.99,,,0.03,Acu-Link.com,2013-11-28 21:15:00,
2013-11-28 16:30:00,48.4,10.3,30.09,NW,315,0.0,-999.0,21,-99.99,,,0.03,Acu-Link.com,2013-11-28 21:30:00,
2013-11-28 16:45:00,48.9,11.8,30.09,NE,45,0.0,-999.0,22,-99.99,,,0.03,Acu-Link.com,2013-11-28 21:45:00,
2013-11-28 17:00:00,46.9,13.8,30.09,SW,225,0.0,-999.0,26,-99.99,,,0.03,Acu-Link.com,2013-11-28 22:00:00,
2013-11-28 17:15:00,43.5,14.9,30.10,ESE,112,0.0,-999.0,31,-99.99,,,0.03,Acu-Link.com,2013-11-28 22:15:00,
2013-11-28 17:30:00,41.5,17.8,30.10,SW,225,0.0,-999.0,38,-99.99,,,0.03,Acu-Link.com,2013-11-28 22:30:00,
2013-11-28 17:45:00,39.2,18.6,30.11,WSW,247,0.0,-999.0,43,-99.99,,,0.03,Acu-Link.com,2013-11-28 22:45:00,
2013-11-28 18:01:00,37.9,20.0,30.12,WSW,247,0.0,-999.0,48,-99.99,,,0.03,Acu-Link.com,2013-11-28 23:01:00,
2013-11-28 18:16:00,37.4,20.0,30.13,SW,225,2.2,-999.0,49,-99.99,,,0.03,Acu-Link.com,2013-11-28 23:16:00,
2013-11-28 18:31:00,36.5,20.1,30.13,WNW,292,0.0,-999.0,51,-99.99,,,0.03,Acu-Link.com,2013-11-28 23:31:00,
2013-11-28 18:46:00,35.1,20.6,30.13,West,270,0.0,-999.0,55,-99.99,,,0.03,Acu-Link.com,2013-11-28 23:46:00,
2013-11-28 19:01:00,34.3,19.8,30.13,NNW,337,0.0,-999.0,55,-99.99,,,0.03,Acu-Link.com,2013-11-29 00:01:00,
2013-11-28 19:16:00,33.6,20.4,30.13,West,270,0.0,-999.0,58,-99.99,,,0.03,Acu-Link.com,2013-11-29 00:16:00,
2013-11-28 19:31:00,32.0,21.6,30.15,NE,45,0.0,-999.0,65,-99.99,,,0.03,Acu-Link.com,2013-11-29 00:31:00,
2013-11-28 19:46:00,30.7,21.8,30.16,NNW,337,0.0,-999.0,69,-99.99,,,0.03,Acu-Link.com,2013-11-29 00:46:00,
2013-11-28 20:01:00,29.5,21.9,30.17,NW,315,0.0,-999.0,73,-99.99,,,0.03,Acu-Link.com,2013-11-29 01:01:00,
2013-11-28 20:17:00,28.6,21.7,30.15,SSE,157,0.0,-999.0,75,-99.99,,,0.03,Acu-Link.com,2013-11-29 01:17:00,
2013-11-28 20:32:00,28.2,21.9,30.16,NNW,337,0.0,-999.0,77,-99.99,,,0.03,Acu-Link.com,2013-11-29 01:32:00,
2013-11-28 20:47:00,27.3,21.7,30.16,SSW,202,0.0,-999.0,79,-99.99,,,0.03,Acu-Link.com,2013-11-29 01:47:00,
2013-11-28 21:02:00,27.0,22.3,30.16,East,90,0.0,-999.0,82,-99.99,,,0.03,Acu-Link.com,2013-11-29 02:02:00,
2013-11-28 21:17:00,26.4,22.5,30.17,ESE,112,0.0,-999.0,85,-99.99,,,0.03,Acu-Link.com,2013-11-29 02:17:00,
2013-11-28 21:32:00,26.4,22.8,30.17,East,90,0.0,-999.0,86,-99.99,,,0.03,Acu-Link.com,2013-11-29 02:32:00,
2013-11-28 21:47:00,26.1,22.8,30.19,SW,225,0.0,-999.0,87,-99.99,,,0.03,Acu-Link.com,2013-11-29 02:47:00,
2013-11-28 22:02:00,25.9,22.8,30.18,NNW,337,0.0,-999.0,88,-99.99,,,0.03,Acu-Link.com,2013-11-29 03:02:00,
2013-11-28 22:17:00,26.1,23.0,30.17,ENE,67,0.0,-999.0,88,-99.99,,,0.03,Acu-Link.com,2013-11-29 03:17:00,
2013-11-28 22:32:00,25.9,22.8,30.17,ENE,67,0.0,-999.0,88,-99.99,,,0.03,Acu-Link.com,2013-11-29 03:32:00,
2013-11-28 22:48:00,26.4,23.3,30.17,NW,315,0.0,-999.0,88,-99.99,,,0.03,Acu-Link.com,2013-11-29 03:48:00,
2013-11-28 23:03:00,25.5,22.5,30.19,ESE,112,0.0,-999.0,88,-99.99,,,0.03,Acu-Link.com,2013-11-29 04:03:00,
2013-11-28 23:18:00,24.4,21.4,30.18,NNW,337,0.0,-999.0,88,-99.99,,,0.03,Acu-Link.com,2013-11-29 04:18:00,
2013-11-28 23:33:00,25.0,22.5,30.19,ESE,112,0.0,-999.0,90,-99.99,,,0.03,Acu-Link.com,2013-11-29 04:33:00,
2013-11-28 23:48:00,24.1,22.1,30.20,ESE,112,0.0,-999.0,92,-99.99,,,0.03,Acu-Link.com,2013-11-29 04:48:00,